Regional Weather Roundup
Issued by NWS Albany, NY

Home | Current Version | Previous Version | Graphics & Text | Print | Product List | Glossary Off
Versions: 1 2 3 4 5 6 7 8 9 10 11 12 13 14 15 16 17 18 19 20 21 22 23 24 25 26 27 28 29 30 31 32 33 34 35 36 37 38 39 40 41 42 43 44 45 46 47 48 49

000
ASUS41 KALY 201410
RWRALY

NEW YORK STATE HOURLY WEATHER ROUNDUP
NATIONAL WEATHER SERVICE ALBANY NY
900 AM EST SAT DEC 20 2014

NOTE: "FAIR" INDICATES FEW OR NO CLOUDS BELOW 12,000 FEET WITH NO
SIGNIFICANT WEATHER AND/OR NO OBSTRUCTIONS TO VISIBILITY.

NYZ032-033-038>043-046>054-057>066-NYZ062>081-201500-
EAST


CITY           SKY/WX    TMP DP  RH WIND       PRES   REMARKS
ALBANY         MOSUNNY   24  16  71 N7        30.33R WCI  16
GLENS FALLS    CLOUDY    22  16  78 NE3       30.33S
POUGHKEEPSIE   CLOUDY    30  18  60 N8        30.30R WCI  22
NEWBURGH       CLOUDY    27  21  80 VRB6      30.28S WCI  20
MONTGOMERY     CLOUDY    28  19  69 NE10      30.27R WCI  19
WHITE PLAINS   PTSUNNY   29  19  66 VRB7      30.25S WCI  22
ISLIP          CLOUDY    32  22  66 N8        30.26R WCI  25
NEW YORK CITY  CLOUDY    31  21  66 N12       30.29R WCI  22
CENTRAL PARK   CLOUDY    30  19  63 VRB3      30.30R
$$

NYZ005>009-017-018-044>046-055-056-201500-
CENTRAL


CITY           SKY/WX    TMP DP  RH WIND       PRES   REMARKS
FULTON         CLOUDY    24  17  74 CALM      30.30S
SYRACUSE       PTSUNNY   23  20  88 CALM      30.30S
ROME           CLOUDY    20  16  84 E6        30.32S WCI  12
ELMIRA         CLOUDY    29  21  72 NW7       30.25S WCI  22
BINGHAMTON     CLOUDY    25  21  85 N8        30.19S WCI  16
MONTICELLO     CLOUDY    23  19  86 NW3       30.22S
$$

NYZ026>034-041>043-201500-
NORTH


CITY           SKY/WX    TMP DP  RH WIND       PRES   REMARKS
WATERTOWN      MOSUNNY   18  11  74 CALM      30.33R
FORT DRUM      NOT AVBL
MASSENA        MOSUNNY    6   3  87 S3        30.36R
SARANAC LAKE   SUNNY      7   4  87 CALM      30.20R
PLATTSBURGH    CLOUDY    16  12  84 W5        30.34R WCI   9
$$

NYZ001>004-010>016-019>021-201500-
WEST


CITY           SKY/WX    TMP DP  RH WIND       PRES   REMARKS
NIAGARA FALLS  MOCLDY    26  22  84 W5        30.29R WCI  20
BUFFALO        PTSUNNY   28  22  78 CALM      30.28S
DUNKIRK        CLOUDY    29  23  78 SW6       30.30R WCI  23
JAMESTOWN      CLOUDY    23  19  86 W3        30.24R
WELLSVILLE     CLOUDY    22  18  85 NW8       30.20S WCI  12
ROCHESTER      CLOUDY    29  20  69 NW5       30.30R WCI  24
PENN YAN       CLOUDY    28  21  75 NW5       30.27R WCI  23
$$

             KEY
       WCI = WIND CHILL INDEX
       VSB = VISIBILITY
       HX  = HEAT INDEX
$$


USA.gov is the U.S. government's official web portal to all federal, state and local government web resources and services.